| time (UTC) | temp F | wind direction | speed MPH | gust MPH | rain 1hr in | rain 24hr in | rain mn in | humidity % | barometer mb |
| 20260903231031 | 58 | 270 | 0.0 | 3.0 | 0.01 | 0.14 | 0.00 | 88 | 1004.9 |
| 20260903230531 | 58 | 243 | 0.0 | 2.0 | 0.00 | 0.14 | 0.00 | 88 | 1005.1 |
| 20260903230052 | 58 | 0 | 0.0 | 4.0 | 0.00 | 0.14 | 0.00 | 87 | 1004.9 |
| 20260903225531 | 58 | 302 | 0.0 | 4.0 | 0.00 | 0.17 | 0.13 | 88 | 1004.9 |
| 20260903225030 | 58 | 184 | 0.0 | 2.0 | 0.00 | 0.17 | 0.13 | 88 | 1005.1 |
| 20260903224544 | 58 | 178 | 0.0 | 4.0 | 0.00 | 0.17 | 0.13 | 87 | 1005.0 |
| 20260903224031 | 58 | 293 | 0.0 | 4.0 | 0.00 | 0.17 | 0.13 | 87 | 1005.0 |
| 20260903223531 | 58 | 284 | 0.0 | 2.0 | 0.00 | 0.17 | 0.13 | 87 | 1005.2 |
| 20260903223042 | 58 | 347 | 0.0 | 3.0 | 0.00 | 0.17 | 0.13 | 87 | 1005.2 |
| 20260903222531 | 58 | 314 | 0.0 | 4.0 | 0.00 | 0.17 | 0.13 | 88 | 1005.3 |
| 20260903222030 | 58 | 290 | 1.0 | 4.0 | 0.00 | 0.17 | 0.13 | 88 | 1005.4 |
| 20260903221552 | 58 | 259 | 0.0 | 4.0 | 0.01 | 0.17 | 0.13 | 88 | 1005.3 |
| 20260903221031 | 58 | 205 | 0.0 | 3.0 | 0.01 | 0.17 | 0.13 | 88 | 1005.3 |
| 20260903220531 | 58 | 270 | 1.0 | 3.0 | 0.01 | 0.17 | 0.13 | 88 | 1005.3 |
| 20260903220054 | 58 | 319 | 0.0 | 3.0 | 0.01 | 0.17 | 0.13 | 88 | 1005.3 |
| 20260903215531 | 58 | 359 | 0.0 | 2.0 | 0.01 | 0.18 | 0.13 | 88 | 1005.4 |
| 20260903215031 | 58 | 274 | 0.0 | 3.0 | 0.01 | 0.18 | 0.13 | 88 | 1005.4 |
| 20260903214545 | 58 | 357 | 0.0 | 3.0 | 0.01 | 0.18 | 0.13 | 88 | 1005.6 |
| 20260903214031 | 58 | 103 | 0.0 | 3.0 | 0.00 | 0.18 | 0.12 | 88 | 1005.7 |
| 20260903213531 | 58 | 360 | 0.0 | 3.0 | 0.00 | 0.18 | 0.12 | 88 | 1005.7 |
| 20260903213041 | 58 | 298 | 0.0 | 2.0 | 0.00 | 0.18 | 0.12 | 87 | 1005.7 |
| 20260903212530 | 58 | 278 | 0.0 | 4.0 | 0.00 | 0.18 | 0.12 | 87 | 1005.9 |
| 20260903212031 | 58 | 98 | 0.0 | 4.0 | 0.00 | 0.18 | 0.12 | 87 | 1005.8 |
| 20260903211554 | 58 | 287 | 0.0 | 3.0 | 0.00 | 0.17 | 0.11 | 87 | 1005.9 |
| 20260903211031 | 58 | 104 | 0.0 | 2.0 | 0.00 | 0.17 | 0.11 | 87 | 1006.0 |
| 20260903210531 | 58 | 243 | 0.0 | 3.0 | 0.00 | 0.17 | 0.11 | 87 | 1006.0 |
| 20260903210046 | 58 | 133 | 0.0 | 3.0 | 0.01 | 0.17 | 0.11 | 87 | 1006.0 |
| 20260903205530 | 58 | 0 | 0.0 | 3.0 | 0.02 | 0.64 | 0.11 | 87 | 1006.2 |
| 20260903205031 | 58 | 281 | 0.0 | 2.0 | 0.02 | 0.64 | 0.11 | 87 | 1006.1 |
| 20260903204543 | 58 | 328 | 0.0 | 2.0 | 0.03 | 0.64 | 0.11 | 87 | 1006.1 |
| 20260903204031 | 58 | 0 | 0.0 | 2.0 | 0.03 | 0.64 | 0.11 | 87 | 1006.2 |
| 20260903203531 | 58 | 0 | 0.0 | 2.0 | 0.03 | 0.64 | 0.11 | 87 | 1006.4 |
| 20260903203044 | 58 | 266 | 0.0 | 2.0 | 0.04 | 0.64 | 0.11 | 87 | 1006.5 |
| 20260903202532 | 58 | 234 | 0.0 | 2.0 | 0.04 | 0.64 | 0.11 | 87 | 1006.5 |
| 20260903202030 | 58 | 306 | 0.0 | 3.0 | 0.05 | 0.64 | 0.11 | 87 | 1006.7 |
| 20260903201552 | 58 | 278 | 1.0 | 3.0 | 0.05 | 0.64 | 0.11 | 87 | 1006.8 |
| 20260903201028 | 58 | 270 | 0.0 | 3.0 | 0.04 | 0.63 | 0.11 | 87 | 1006.8 |
| 20260903200531 | 58 | 75 | 0.0 | 3.0 | 0.04 | 0.63 | 0.11 | 87 | 1006.7 |
| 20260903200101 | 58 | 253 | 0.0 | 3.0 | 0.04 | 0.62 | 0.10 | 86 | 1006.8 |
| 20260903195530 | 58 | 255 | 0.0 | 3.0 | 0.03 | 0.65 | 0.09 | 86 | 1007.0 |
| 20260903195030 | 58 | 299 | 0.0 | 2.0 | 0.03 | 0.65 | 0.09 | 86 | 1006.9 |
| 20260903194545 | 58 | 214 | 0.0 | 3.0 | 0.03 | 0.64 | 0.08 | 86 | 1007.0 |
| 20260903194031 | 58 | 0 | 0.0 | 3.0 | 0.03 | 0.64 | 0.08 | 86 | 1007.0 |
| 20260903193527 | 58 | 0 | 0.0 | 2.0 | 0.02 | 0.63 | 0.07 | 86 | 1006.9 |
| 20260903193042 | 58 | 309 | 0.0 | 2.0 | 0.01 | 0.62 | 0.07 | 86 | 1007.1 |
| 20260903192618 | 58 | 263 | 0.0 | 3.0 | 0.01 | 0.62 | 0.07 | 86 | 1007.2 |
| 20260903192030 | 58 | 330 | 0.0 | 3.0 | 0.00 | 0.62 | 0.06 | 86 | 1007.1 |
| 20260903191556 | 58 | 318 | 0.0 | 4.0 | 0.01 | 0.62 | 0.06 | 86 | 1007.0 |
| 20260903191031 | 58 | 333 | 1.0 | 4.0 | 0.01 | 0.62 | 0.06 | 85 | 1007.0 |
| 20260903190531 | 58 | 233 | 0.0 | 2.0 | 0.01 | 0.62 | 0.06 | 85 | 1006.9 |
| 20260903190044 | 58 | 193 | 0.0 | 2.0 | 0.00 | 0.61 | 0.05 | 85 | 1006.8 |
| 20260903185530 | 58 | 236 | 0.0 | 2.0 | 0.00 | 0.64 | 0.05 | 85 | 1007.0 |
| 20260903185033 | 58 | 122 | 0.0 | 3.0 | 0.00 | 0.64 | 0.05 | 85 | 1007.0 |
| 20260903184558 | 58 | 278 | 1.0 | 3.0 | 0.00 | 0.64 | 0.05 | 85 | 1007.1 |
| 20260903184030 | 58 | 297 | 1.0 | 3.0 | 0.01 | 0.64 | 0.05 | 85 | 1007.3 |
| 20260903183531 | 58 | 284 | 0.0 | 3.0 | 0.01 | 0.64 | 0.05 | 85 | 1007.2 |
| 20260903183056 | 58 | 257 | 1.0 | 3.0 | 0.02 | 0.64 | 0.05 | 85 | 1007.1 |
| 20260903182533 | 58 | 245 | 0.0 | 3.0 | 0.02 | 0.64 | 0.05 | 85 | 1007.1 |
| 20260903182033 | 58 | 262 | 0.0 | 3.0 | 0.02 | 0.64 | 0.05 | 85 | 1007.0 |
| 20260903181543 | 58 | 280 | 0.0 | 3.0 | 0.01 | 0.63 | 0.04 | 85 | 1006.9 |
| 20260903181030 | 58 | 0 | 0.0 | 3.0 | 0.01 | 0.63 | 0.04 | 85 | 1007.1 |
| 20260903180530 | 58 | 293 | 0.0 | 3.0 | 0.01 | 0.63 | 0.04 | 84 | 1007.1 |
| 20260903180050 | 58 | 100 | 0.0 | 1.0 | 0.01 | 0.63 | 0.04 | 84 | 1007.3 |
| 20260903175532 | 59 | 11 | 0.0 | 1.0 | 0.01 | 0.65 | 0.04 | 84 | 1007.3 |
| 20260903175030 | 59 | 0 | 0.0 | 1.0 | 0.01 | 0.65 | 0.04 | 84 | 1007.4 |
| 20260903174551 | 59 | 277 | 0.0 | 2.0 | 0.01 | 0.65 | 0.04 | 84 | 1007.5 |
| 20260903174031 | 59 | 72 | 0.0 | 2.0 | 0.00 | 0.64 | 0.03 | 83 | 1007.7 |
| 20260903173527 | 59 | 259 | 0.0 | 2.0 | 0.00 | 0.64 | 0.03 | 83 | 1007.6 |
| 20260903173049 | 59 | 221 | 0.0 | 1.0 | 0.00 | 0.63 | 0.03 | 83 | 1007.7 |
| 20260903172533 | 59 | 60 | 0.0 | 1.0 | 0.00 | 0.63 | 0.03 | 83 | 1007.8 |
| 20260903172028 | 59 | 134 | 0.0 | 1.0 | 0.00 | 0.63 | 0.03 | 83 | 1007.8 |
| 20260903171545 | 59 | 252 | 0.0 | 1.0 | 0.00 | 0.63 | 0.03 | 83 | 1007.8 |
| 20260903171030 | 59 | 263 | 0.0 | 1.0 | 0.00 | 0.63 | 0.03 | 83 | 1007.8 |
| 20260903170531 | 59 | 0 | 0.0 | 1.0 | 0.00 | 0.63 | 0.03 | 83 | 1007.8 |
| 20260903170044 | 59 | 269 | 0.0 | 2.0 | 0.00 | 0.63 | 0.03 | 83 | 1007.9 |
| 20260903165529 | 59 | 0 | 0.0 | 2.0 | 0.00 | 0.66 | 0.03 | 83 | 1007.9 |
| 20260903165027 | 59 | 323 | 0.0 | 2.0 | 0.00 | 0.66 | 0.03 | 83 | 1008.0 |
| 20260903164550 | 59 | 0 | 0.0 | 2.0 | 0.00 | 0.66 | 0.03 | 83 | 1008.1 |
| 20260903164031 | 59 | 344 | 0.0 | 2.0 | 0.00 | 0.66 | 0.03 | 83 | 1008.1 |
| 20260903163527 | 59 | 165 | 0.0 | 2.0 | 0.00 | 0.66 | 0.03 | 82 | 1008.3 |
| 20260903163044 | 59 | 235 | 0.0 | 2.0 | 0.00 | 0.66 | 0.03 | 82 | 1008.3 |
| 20260903162533 | 59 | 319 | 0.0 | 3.0 | 0.00 | 0.66 | 0.03 | 82 | 1008.3 |
| 20260903162031 | 59 | 237 | 0.0 | 3.0 | 0.00 | 0.66 | 0.03 | 82 | 1008.3 |
| 20260903161556 | 59 | 290 | 1.0 | 2.0 | 0.00 | 0.66 | 0.03 | 82 | 1008.4 |
| 20260903161030 | 59 | 253 | 0.0 | 2.0 | 0.00 | 0.66 | 0.03 | 83 | 1008.3 |
| 20260903160532 | 59 | 261 | 0.0 | 2.0 | 0.00 | 0.66 | 0.03 | 83 | 1008.6 |
| 20260903160052 | 59 | 225 | 0.0 | 3.0 | 0.00 | 0.66 | 0.03 | 83 | 1008.3 |
| 20260903155531 | 58 | 266 | 0.0 | 3.0 | 0.00 | 0.67 | 0.03 | 83 | 1008.4 |
| 20260903155031 | 58 | 246 | 0.0 | 3.0 | 0.00 | 0.67 | 0.03 | 83 | 1008.3 |
| 20260903154551 | 58 | 260 | 0.0 | 2.0 | 0.00 | 0.67 | 0.03 | 83 | 1008.2 |
| 20260903154030 | 58 | 258 | 0.0 | 3.0 | 0.00 | 0.67 | 0.03 | 83 | 1008.2 |
| 20260903153531 | 58 | 0 | 0.0 | 3.0 | 0.00 | 0.67 | 0.03 | 83 | 1008.1 |
| 20260903153047 | 58 | 273 | 0.0 | 2.0 | 0.00 | 0.67 | 0.03 | 83 | 1008.2 |
| 20260903152531 | 58 | 92 | 0.0 | 1.0 | 0.00 | 0.67 | 0.03 | 82 | 1008.3 |
| 20260903152030 | 59 | 255 | 0.0 | 1.0 | 0.00 | 0.67 | 0.03 | 82 | 1008.2 |
| 20260903151544 | 59 | 112 | 0.0 | 1.0 | 0.00 | 0.67 | 0.03 | 82 | 1008.3 |
| 20260903151031 | 59 | 0 | 0.0 | 2.0 | 0.00 | 0.67 | 0.03 | 82 | 1008.5 |
| 20260903150531 | 59 | 261 | 0.0 | 2.0 | 0.00 | 0.67 | 0.03 | 81 | 1008.8 |
| 20260903150055 | 59 | 326 | 0.0 | 3.0 | 0.00 | 0.67 | 0.03 | 81 | 1008.9 |
| 20260903145530 | 59 | 0 | 0.0 | 4.0 | 0.00 | 0.67 | 0.03 | 80 | 1008.9 |
| 20260903145032 | 59 | 333 | 1.0 | 4.0 | 0.00 | 0.67 | 0.03 | 79 | 1009.0 |
| 20260903144544 | 60 | 262 | 1.0 | 3.0 | 0.00 | 0.67 | 0.03 | 79 | 1009.0 |
| 20260903144031 | 60 | 90 | 1.0 | 3.0 | 0.00 | 0.67 | 0.03 | 79 | 1009.2 |
| 20260903143531 | 60 | 224 | 0.0 | 3.0 | 0.00 | 0.67 | 0.03 | 78 | 1009.1 |
| 20260903143105 | 60 | 261 | 0.0 | 3.0 | 0.00 | 0.67 | 0.03 | 78 | 1009.1 |
| 20260903142531 | 61 | 283 | 0.0 | 3.0 | 0.00 | 0.67 | 0.03 | 78 | 1009.1 |
| 20260903142033 | 61 | 155 | 0.0 | 3.0 | 0.00 | 0.67 | 0.03 | 79 | 1009.2 |
| 20260903141544 | 61 | 238 | 0.0 | 3.0 | 0.00 | 0.67 | 0.03 | 79 | 1009.3 |
| 20260903141031 | 61 | 298 | 0.0 | 1.0 | 0.00 | 0.67 | 0.03 | 79 | 1009.4 |
| 20260903140535 | 61 | 0 | 0.0 | 1.0 | 0.00 | 0.67 | 0.03 | 79 | 1009.2 |
| 20260903140054 | 61 | 0 | 0.0 | 2.0 | 0.00 | 0.67 | 0.03 | 80 | 1009.2 |
| 20260903135531 | 61 | 305 | 0.0 | 3.0 | 0.00 | 0.69 | 0.03 | 80 | 1009.3 |
| 20260903135031 | 61 | 110 | 1.0 | 3.0 | 0.00 | 0.69 | 0.03 | 80 | 1009.1 |
| 20260903134553 | 61 | 266 | 0.0 | 2.0 | 0.00 | 0.69 | 0.03 | 80 | 1009.2 |
| 20260903134031 | 61 | 250 | 0.0 | 3.0 | 0.00 | 0.69 | 0.03 | 79 | 1009.1 |
| 20260903133531 | 61 | 283 | 0.0 | 3.0 | 0.00 | 0.69 | 0.03 | 79 | 1009.4 |
| 20260903133054 | 61 | 278 | 1.0 | 5.0 | 0.00 | 0.69 | 0.03 | 79 | 1009.3 |
| 20260903132534 | 61 | 317 | 0.0 | 5.0 | 0.00 | 0.69 | 0.03 | 78 | 1009.3 |
| 20260903132031 | 61 | 137 | 0.0 | 3.0 | 0.00 | 0.69 | 0.03 | 78 | 1009.5 |
| 20260903131607 | 61 | 244 | 0.0 | 2.0 | 0.00 | 0.69 | 0.03 | 78 | 1009.2 |
| 20260903131030 | 61 | 238 | 0.0 | 2.0 | 0.00 | 0.69 | 0.03 | 78 | 1009.4 |
| 20260903130531 | 61 | 217 | 0.0 | 3.0 | 0.00 | 0.69 | 0.03 | 78 | 1009.4 |
| 20260903125531 | 61 | 270 | 1.0 | 3.0 | 0.00 | 0.71 | 0.03 | 77 | 1009.7 |
| 20260903125030 | 61 | 283 | 0.0 | 2.0 | 0.00 | 0.71 | 0.03 | 77 | 1009.7 |
| 20260903124545 | 62 | 328 | 0.0 | 2.0 | 0.00 | 0.71 | 0.03 | 77 | 1009.4 |
| 20260903124031 | 62 | 0 | 0.0 | 3.0 | 0.00 | 0.71 | 0.03 | 76 | 1009.7 |
| 20260903123535 | 62 | 26 | 0.0 | 3.0 | 0.00 | 0.71 | 0.03 | 76 | 1009.9 |
| 20260903123057 | 62 | 259 | 1.0 | 4.0 | 0.00 | 0.71 | 0.03 | 76 | 1009.7 |
| 20260903122532 | 63 | 277 | 0.0 | 4.0 | 0.00 | 0.71 | 0.03 | 76 | 1009.7 |
| 20260903122033 | 63 | 190 | 0.0 | 3.0 | 0.00 | 0.71 | 0.03 | 75 | 1009.7 |
| 20260903121550 | 63 | 321 | 0.0 | 2.0 | 0.00 | 0.71 | 0.03 | 76 | 1009.7 |
| 20260903121034 | 63 | 248 | 0.0 | 2.0 | 0.00 | 0.71 | 0.03 | 75 | 1009.7 |
| 20260903120536 | 63 | 160 | 0.0 | 2.0 | 0.00 | 0.71 | 0.03 | 75 | 1009.6 |
| 20260903120046 | 63 | 326 | 0.0 | 2.0 | 0.00 | 0.71 | 0.03 | 75 | 1009.6 |
| 20260903115534 | 63 | 266 | 0.0 | 2.0 | 0.00 | 0.72 | 0.03 | 75 | 1009.9 |
| 20260903115035 | 63 | 15 | 0.0 | 2.0 | 0.00 | 0.72 | 0.03 | 75 | 1009.7 |
| 20260903114552 | 63 | 0 | 0.0 | 2.0 | 0.00 | 0.72 | 0.03 | 74 | 1009.6 |
| 20260903114031 | 63 | 236 | 0.0 | 2.0 | 0.00 | 0.72 | 0.03 | 74 | 1009.4 |
| 20260903113532 | 63 | 345 | 0.0 | 2.0 | 0.00 | 0.72 | 0.03 | 75 | 1009.5 |
| 20260903113053 | 63 | 312 | 0.0 | 2.0 | 0.00 | 0.72 | 0.03 | 75 | 1009.4 |
| 20260903112534 | 63 | 274 | 0.0 | 2.0 | 0.00 | 0.72 | 0.03 | 75 | 1009.5 |
| 20260903112033 | 62 | 217 | 1.0 | 2.0 | 0.00 | 0.72 | 0.03 | 74 | 1009.6 |
| 20260903111603 | 63 | 260 | 0.0 | 4.0 | 0.00 | 0.72 | 0.03 | 76 | 1009.8 |
| 20260903111034 | 63 | 318 | 1.0 | 4.0 | 0.00 | 0.72 | 0.03 | 75 | 1009.7 |
| 20260903110532 | 63 | 236 | 1.0 | 2.0 | 0.00 | 0.72 | 0.03 | 76 | 1010.0 |
| 20260903110049 | 63 | 275 | 0.0 | 3.0 | 0.00 | 0.72 | 0.03 | 77 | 1009.9 |
| 20260903105533 | 62 | 298 | 1.0 | 3.0 | 0.00 | 0.72 | 0.03 | 77 | 1010.0 |
| 20260903105033 | 62 | 190 | 1.0 | 5.0 | 0.00 | 0.72 | 0.03 | 77 | 1009.9 |
| 20260903104545 | 62 | 283 | 1.0 | 5.0 | 0.00 | 0.72 | 0.03 | 77 | 1009.9 |
| 20260903104032 | 62 | 283 | 1.0 | 5.0 | 0.00 | 0.72 | 0.03 | 77 | 1009.9 |
| 20260903103532 | 62 | 289 | 1.0 | 4.0 | 0.00 | 0.72 | 0.03 | 76 | 1009.9 |
| 20260903103052 | 62 | 317 | 2.0 | 4.0 | 0.00 | 0.72 | 0.03 | 76 | 1009.8 |
| 20260903102535 | 62 | 290 | 1.0 | 4.0 | 0.00 | 0.72 | 0.03 | 77 | 1009.6 |
| 20260903102032 | 62 | 281 | 1.0 | 4.0 | 0.00 | 0.72 | 0.03 | 76 | 1009.7 |
| 20260903101551 | 62 | 252 | 1.0 | 4.0 | 0.00 | 0.72 | 0.03 | 76 | 1009.8 |
| 20260903101034 | 62 | 282 | 1.0 | 3.0 | 0.00 | 0.72 | 0.03 | 76 | 1009.6 |
| 20260903100532 | 62 | 328 | 1.0 | 3.0 | 0.00 | 0.72 | 0.03 | 77 | 1009.7 |
| 20260903100045 | 62 | 236 | 1.0 | 3.0 | 0.00 | 0.72 | 0.03 | 77 | 1009.6 |
| 20260903095531 | 62 | 278 | 1.0 | 3.0 | 0.00 | 0.72 | 0.03 | 77 | 1009.6 |
| 20260903095031 | 62 | 297 | 1.0 | 3.0 | 0.00 | 0.72 | 0.03 | 78 | 1009.7 |
| 20260903094546 | 62 | 259 | 1.0 | 3.0 | 0.00 | 0.72 | 0.03 | 79 | 1009.7 |
| 20260903094031 | 61 | 240 | 1.0 | 3.0 | 0.00 | 0.72 | 0.03 | 80 | 1009.9 |
| 20260903093531 | 61 | 330 | 1.0 | 3.0 | 0.00 | 0.72 | 0.03 | 81 | 1009.9 |
| 20260903093044 | 60 | 306 | 1.0 | 4.0 | 0.00 | 0.72 | 0.03 | 82 | 1009.8 |
| 20260903092533 | 59 | 289 | 1.0 | 4.0 | 0.00 | 0.72 | 0.03 | 83 | 1009.8 |
| 20260903092030 | 59 | 252 | 0.0 | 2.0 | 0.00 | 0.72 | 0.03 | 83 | 1009.9 |
| 20260903091553 | 58 | 257 | 0.0 | 2.0 | 0.00 | 0.72 | 0.03 | 83 | 1009.7 |
| 20260903091031 | 58 | 158 | 0.0 | 3.0 | 0.00 | 0.72 | 0.03 | 83 | 1009.7 |
| 20260903090533 | 58 | 266 | 0.0 | 3.0 | 0.00 | 0.72 | 0.03 | 83 | 1009.7 |
| 20260903090046 | 58 | 303 | 1.0 | 4.0 | 0.00 | 0.72 | 0.03 | 83 | 1009.9 |
| 20260903085531 | 58 | 257 | 1.0 | 5.0 | 0.00 | 0.76 | 0.03 | 82 | 1009.7 |
| 20260903085031 | 59 | 293 | 2.0 | 5.0 | 0.00 | 0.76 | 0.03 | 81 | 1009.5 |
| 20260903084543 | 59 | 302 | 2.0 | 4.0 | 0.00 | 0.76 | 0.03 | 80 | 1009.6 |
| 20260903084031 | 59 | 291 | 2.0 | 4.0 | 0.00 | 0.76 | 0.03 | 80 | 1009.4 |
| 20260903083530 | 59 | 264 | 2.0 | 4.0 | 0.00 | 0.76 | 0.03 | 81 | 1009.5 |
| 20260903083047 | 59 | 288 | 1.0 | 4.0 | 0.00 | 0.76 | 0.03 | 81 | 1009.5 |
| 20260903082530 | 59 | 305 | 1.0 | 4.0 | 0.00 | 0.76 | 0.03 | 81 | 1009.4 |
| 20260903082031 | 58 | 300 | 2.0 | 5.0 | 0.00 | 0.76 | 0.03 | 81 | 1009.4 |
| 20260903081550 | 58 | 267 | 2.0 | 5.0 | 0.00 | 0.76 | 0.03 | 81 | 1009.3 |
| 20260903081029 | 58 | 285 | 2.0 | 5.0 | 0.00 | 0.76 | 0.03 | 82 | 1009.2 |
| 20260903080536 | 58 | 249 | 1.0 | 4.0 | 0.00 | 0.76 | 0.03 | 82 | 1009.0 |
| 20260903080046 | 58 | 269 | 1.0 | 4.0 | 0.00 | 0.76 | 0.03 | 82 | 1009.0 |
| 20260903075531 | 58 | 300 | 2.0 | 4.0 | 0.00 | 0.78 | 0.03 | 82 | 1008.9 |
| 20260903075031 | 58 | 288 | 2.0 | 4.0 | 0.00 | 0.78 | 0.03 | 82 | 1008.9 |
| 20260903074551 | 57 | 309 | 2.0 | 4.0 | 0.00 | 0.78 | 0.03 | 83 | 1008.9 |
| 20260903074031 | 57 | 269 | 1.0 | 4.0 | 0.00 | 0.78 | 0.03 | 83 | 1009.1 |
| 20260903073530 | 57 | 290 | 1.0 | 5.0 | 0.00 | 0.78 | 0.03 | 82 | 1008.9 |
| 20260903073048 | 57 | 339 | 1.0 | 5.0 | 0.00 | 0.78 | 0.03 | 82 | 1009.0 |
| 20260903072532 | 57 | 259 | 2.0 | 5.0 | 0.00 | 0.78 | 0.03 | 82 | 1009.0 |
| 20260903072031 | 57 | 340 | 1.0 | 5.0 | 0.00 | 0.78 | 0.03 | 83 | 1009.1 |
| 20260903071545 | 57 | 223 | 2.0 | 5.0 | 0.00 | 0.78 | 0.03 | 83 | 1009.2 |
| 20260903071031 | 57 | 306 | 2.0 | 5.0 | 0.00 | 0.78 | 0.03 | 83 | 1009.0 |
| 20260903070531 | 57 | 265 | 2.0 | 5.0 | 0.00 | 0.78 | 0.03 | 83 | 1009.0 |
| 20260903070054 | 57 | 281 | 2.0 | 5.0 | 0.00 | 0.78 | 0.03 | 84 | 1008.8 |
| 20260903065531 | 57 | 272 | 2.0 | 4.0 | 0.00 | 0.81 | 0.03 | 84 | 1008.8 |
| 20260903065031 | 57 | 252 | 2.0 | 4.0 | 0.00 | 0.81 | 0.03 | 85 | 1008.7 |
| 20260903064549 | 57 | 301 | 1.0 | 4.0 | 0.00 | 0.81 | 0.03 | 85 | 1008.6 |
| 20260903064030 | 57 | 300 | 1.0 | 4.0 | 0.00 | 0.81 | 0.03 | 85 | 1008.5 |
| 20260903063532 | 57 | 323 | 1.0 | 5.0 | 0.00 | 0.81 | 0.03 | 85 | 1008.3 |
| 20260903063049 | 57 | 266 | 2.0 | 5.0 | 0.00 | 0.81 | 0.03 | 85 | 1008.5 |
| 20260903062534 | 57 | 314 | 2.0 | 4.0 | 0.00 | 0.81 | 0.03 | 86 | 1008.6 |
| 20260903062033 | 56 | 285 | 1.0 | 5.0 | 0.00 | 0.81 | 0.03 | 86 | 1008.6 |
| 20260903061552 | 56 | 273 | 2.0 | 5.0 | 0.00 | 0.81 | 0.03 | 87 | 1008.8 |
| 20260903061030 | 56 | 78 | 0.0 | 2.0 | 0.00 | 0.81 | 0.03 | 87 | 1008.6 |
| 20260903060530 | 56 | 270 | 0.0 | 2.0 | 0.00 | 0.81 | 0.03 | 87 | 1008.8 |
| 20260903060056 | 56 | 271 | 0.0 | 1.0 | 0.00 | 0.81 | 0.03 | 87 | 1008.9 |
| 20260903055530 | 56 | 86 | 0.0 | 3.0 | 0.00 | 0.83 | 0.03 | 87 | 1008.9 |
| 20260903055030 | 56 | 0 | 0.0 | 3.0 | 0.00 | 0.83 | 0.03 | 87 | 1008.7 |
| 20260903054550 | 56 | 128 | 0.0 | 1.0 | 0.00 | 0.83 | 0.03 | 87 | 1008.7 |
| 20260903054030 | 56 | 0 | 0.0 | 1.0 | 0.00 | 0.83 | 0.03 | 87 | 1008.5 |
| 20260903053531 | 56 | 245 | 0.0 | 4.0 | 0.00 | 0.83 | 0.03 | 87 | 1008.4 |
| 20260903053048 | 56 | 232 | 0.0 | 4.0 | 0.00 | 0.83 | 0.03 | 87 | 1008.2 |
| 20260903052533 | 56 | 352 | 1.0 | 3.0 | 0.00 | 0.83 | 0.03 | 87 | 1008.1 |
| 20260903052030 | 56 | 281 | 1.0 | 3.0 | 0.00 | 0.83 | 0.03 | 87 | 1008.1 |
| 20260903051545 | 56 | 288 | 1.0 | 3.0 | 0.00 | 0.83 | 0.03 | 87 | 1008.1 |
| 20260903051034 | 56 | 276 | 1.0 | 3.0 | 0.00 | 0.83 | 0.03 | 88 | 1007.9 |
| 20260903050531 | 56 | 320 | 1.0 | 5.0 | 0.00 | 0.83 | 0.03 | 88 | 1008.0 |
| 20260903050050 | 56 | 259 | 1.0 | 5.0 | 0.00 | 0.83 | 0.03 | 88 | 1008.1 |
| 20260903045532 | 56 | 165 | 1.0 | 5.0 | 0.00 | 0.85 | 0.03 | 88 | 1007.9 |
| 20260903045036 | 57 | 256 | 0.0 | 2.0 | 0.00 | 0.85 | 0.03 | 88 | 1007.9 |
| 20260903044547 | 57 | 29 | 0.0 | 1.0 | 0.00 | 0.85 | 0.03 | 89 | 1007.7 |
| 20260903044032 | 57 | 0 | 0.0 | 1.0 | 0.00 | 0.85 | 0.03 | 89 | 1007.6 |
| 20260903043532 | 57 | 139 | 0.0 | 1.0 | 0.00 | 0.85 | 0.03 | 89 | 1007.6 |
| 20260903043053 | 57 | 342 | 0.0 | 3.0 | 0.00 | 0.85 | 0.03 | 89 | 1007.5 |
| 20260903042531 | 57 | 0 | 0.0 | 3.0 | 0.00 | 0.85 | 0.03 | 89 | 1007.7 |
| 20260903042035 | 58 | 203 | 1.0 | 3.0 | 0.00 | 0.85 | 0.03 | 89 | 1007.6 |
| 20260903041552 | 58 | 30 | 1.0 | 3.0 | 0.00 | 0.85 | 0.03 | 89 | 1007.6 |
| 20260903041032 | 58 | 271 | 1.0 | 3.0 | 0.00 | 0.85 | 0.03 | 89 | 1007.6 |
| 20260903040531 | 58 | 43 | 0.0 | 3.0 | 0.00 | 0.85 | 0.03 | 89 | 1007.4 |
| 20260903040047 | 58 | 236 | 1.0 | 4.0 | 0.00 | 0.85 | 0.03 | 89 | 1007.5 |
| 20260903035531 | 58 | 300 | 1.0 | 5.0 | 0.00 | 0.85 | 0.03 | 89 | 1007.4 |
| 20260903035031 | 58 | 291 | 1.0 | 5.0 | 0.00 | 0.85 | 0.03 | 89 | 1007.3 |
| 20260903034550 | 58 | 319 | 1.0 | 4.0 | 0.00 | 0.85 | 0.03 | 89 | 1007.3 |
| 20260903034032 | 58 | 292 | 1.0 | 5.0 | 0.00 | 0.85 | 0.03 | 89 | 1007.1 |
| 20260903033533 | 59 | 224 | 0.0 | 5.0 | 0.00 | 0.85 | 0.03 | 89 | 1007.2 |
| 20260903033042 | 59 | 298 | 1.0 | 3.0 | 0.00 | 0.85 | 0.03 | 89 | 1007.2 |
| 20260903032533 | 59 | 255 | 0.0 | 3.0 | 0.00 | 0.85 | 0.03 | 89 | 1007.3 |
| 20260903032032 | 59 | 268 | 0.0 | 2.0 | 0.00 | 0.85 | 0.03 | 89 | 1007.1 |
| 20260903031551 | 59 | 262 | 0.0 | 2.0 | 0.00 | 0.85 | 0.03 | 89 | 1007.1 |
| 20260903031031 | 59 | 178 | 0.0 | 2.0 | 0.00 | 0.85 | 0.03 | 89 | 1007.0 |
| 20260903030534 | 59 | 81 | 0.0 | 3.0 | 0.00 | 0.85 | 0.03 | 89 | 1007.0 |
| 20260903030049 | 59 | 84 | 0.0 | 6.0 | 0.00 | 0.85 | 0.03 | 89 | 1006.9 |
| 20260903025535 | 59 | 0 | 1.0 | 6.0 | 0.00 | 0.85 | 0.03 | 89 | 1007.0 |
| 20260903025032 | 59 | 244 | 0.0 | 4.0 | 0.00 | 0.85 | 0.03 | 89 | 1007.0 |
| 20260903024551 | 59 | 218 | 1.0 | 4.0 | 0.00 | 0.85 | 0.03 | 90 | 1007.0 |
| 20260903024033 | 59 | 273 | 0.0 | 2.0 | 0.00 | 0.85 | 0.03 | 89 | 1006.9 |
| 20260903023533 | 59 | 39 | 0.0 | 1.0 | 0.00 | 0.85 | 0.03 | 90 | 1006.8 |
| 20260903023116 | 59 | 0 | 0.0 | 1.0 | 0.00 | 0.85 | 0.03 | 89 | 1006.9 |
| 20260903022534 | 59 | 234 | 0.0 | 3.0 | 0.00 | 0.85 | 0.03 | 89 | 1006.9 |
| 20260903022031 | 59 | 0 | 0.0 | 3.0 | 0.00 | 0.85 | 0.03 | 89 | 1006.9 |
| 20260903021553 | 59 | 86 | 0.0 | 3.0 | 0.00 | 0.85 | 0.03 | 89 | 1006.9 |
| 20260903021031 | 59 | 129 | 0.0 | 2.0 | 0.00 | 0.85 | 0.03 | 89 | 1006.9 |
| 20260903020535 | 59 | 287 | 0.0 | 3.0 | 0.00 | 0.85 | 0.03 | 89 | 1006.9 |
| 20260903020055 | 59 | 290 | 0.0 | 3.0 | 0.00 | 0.85 | 0.03 | 89 | 1006.9 |
| 20260903015536 | 59 | 223 | 1.0 | 3.0 | 0.00 | 0.85 | 0.03 | 89 | 1006.7 |
| 20260903015031 | 59 | 313 | 0.0 | 2.0 | 0.00 | 0.85 | 0.03 | 89 | 1006.8 |
| 20260903014558 | 59 | 220 | 0.0 | 1.0 | 0.00 | 0.85 | 0.03 | 89 | 1006.7 |
| 20260903014031 | 59 | 143 | 0.0 | 1.0 | 0.00 | 0.85 | 0.03 | 89 | 1006.8 |
| 20260903013531 | 59 | 0 | 0.0 | 2.0 | 0.00 | 0.85 | 0.03 | 89 | 1006.8 |
| 20260903013052 | 59 | 94 | 0.0 | 2.0 | 0.00 | 0.85 | 0.03 | 89 | 1006.8 |
| 20260903012534 | 59 | 45 | 0.0 | 2.0 | 0.00 | 0.85 | 0.03 | 89 | 1006.9 |
| 20260903012036 | 59 | 0 | 0.0 | 2.0 | 0.00 | 0.85 | 0.03 | 89 | 1007.0 |
| 20260903011547 | 59 | 243 | 0.0 | 2.0 | 0.00 | 0.85 | 0.03 | 89 | 1007.1 |
| 20260903011032 | 59 | 60 | 0.0 | 2.0 | 0.00 | 0.85 | 0.03 | 89 | 1007.1 |
| 20260903010532 | 59 | 249 | 1.0 | 2.0 | 0.00 | 0.85 | 0.03 | 89 | 1007.0 |
| 20260903010056 | 60 | 266 | 0.0 | 2.0 | 0.00 | 0.85 | 0.03 | 89 | 1007.0 |
| 20260903005532 | 60 | 196 | 0.0 | 4.0 | 0.00 | 0.85 | 0.03 | 89 | 1006.9 |
| 20260903005035 | 60 | 290 | 1.0 | 4.0 | 0.00 | 0.85 | 0.03 | 89 | 1007.0 |
| 20260903004543 | 60 | 300 | 1.0 | 5.0 | 0.00 | 0.85 | 0.03 | 89 | 1007.1 |
| 20260903004031 | 60 | 271 | 1.0 | 9.0 | 0.00 | 0.85 | 0.03 | 89 | 1007.0 |
| 20260903003532 | 60 | 303 | 2.0 | 9.0 | 0.01 | 0.85 | 0.03 | 90 | 1007.0 |
| 20260903003042 | 60 | 315 | 3.0 | 9.0 | 0.02 | 0.85 | 0.03 | 90 | 1007.1 |
| 20260903002531 | 60 | 285 | 2.0 | 6.0 | 0.02 | 0.84 | 0.02 | 90 | 1007.0 |
| 20260903002031 | 60 | 282 | 2.0 | 6.0 | 0.02 | 0.84 | 0.02 | 90 | 1006.8 |
| 20260903001552 | 60 | 288 | 2.0 | 5.0 | 0.02 | 0.84 | 0.02 | 90 | 1006.8 |
| 20260903001035 | 60 | 301 | 2.0 | 5.0 | 0.02 | 0.84 | 0.02 | 90 | 1006.9 |
| 20260903000531 | 60 | 307 | 2.0 | 6.0 | 0.02 | 0.84 | 0.02 | 90 | 1006.8 |
| 20260903000046 | 60 | 277 | 2.0 | 6.0 | 0.02 | 0.84 | 0.02 | 90 | 1006.8 |
| 20260902235531 | 60 | 276 | 2.0 | 8.0 | 0.02 | 0.85 | 0.02 | 90 | 1006.8 |
| 20260902235031 | 61 | 285 | 3.0 | 8.0 | 0.02 | 0.85 | 0.02 | 90 | 1006.7 |
| 20260902234549 | 61 | 264 | 1.0 | 4.0 | 0.03 | 0.85 | 0.02 | 90 | 1006.7 |
| 20260902234031 | 61 | 287 | 2.0 | 4.0 | 0.03 | 0.85 | 0.02 | 90 | 1006.5 |
| 20260902233531 | 61 | 266 | 1.0 | 3.0 | 0.02 | 0.84 | 0.01 | 90 | 1006.6 |
| 20260902233044 | 61 | 300 | 1.0 | 3.0 | 0.01 | 0.83 | 0.00 | 90 | 1006.5 |
| 20260902232533 | 61 | 340 | 1.0 | 3.0 | 0.00 | 0.82 | 0.00 | 90 | 1006.4 |
| 20260902232034 | 61 | 328 | 0.0 | 3.0 | 0.01 | 0.82 | 0.00 | 90 | 1006.2 |
| 20260902231551 | 61 | 247 | 0.0 | 2.0 | 0.02 | 0.82 | 0.00 | 90 | 1006.2 |